Punta Gorda, FL

12:21 AM EST on November 12, 2019 (GMT -0500)
Charlotte County

Weather History for KPGD - October, 2019

Change the Weather History Date:

Sunday, October 20, 2019

  Actual Average Record
Temperature  
Mean Temperature 82 °F -  
Max Temperature 88 °F 83 °F 91 °F (1998)
Min Temperature 75 °F 63 °F 53 °F (1996)
Cooling Degree Days 16    
Growing Degree Days 32 (Base 50)    
Moisture  
Dew Point 78 °F    
Average Humidity 91    
Maximum Humidity 100    
Minimum Humidity 63    
Precipitation  
Precipitation 0.29 in - - ()
Sea Level Pressure  
Sea Level Pressure 29.93 in    
Wind  
Wind Speed 7 mph (SW)    
Max Wind Speed 10 mph    
Max Gust Speed -    
Visibility 9 miles    
Events Rain    
Averages and records for this station are not official NWS values.
T = Trace of Precipitation, MM = Missing Value Source: NWS Daily Summary

Daily Weather History Graph

Daily Weather History Graph

Search for Another Location

Airport or City:

Astronomy

Oct. 20, 2019 Rise Set
Actual Time 7:30 AM EDT 6:54 PM EDT
Civil Twilight 7:06 AM EDT 7:18 PM EDT
Nautical Twilight 6:39 AM EDT 7:45 PM EDT
Astronomical Twilight 6:12 AM EDT 8:12 PM EDT
Moon No Moon Rise 1:35 PM EDT (10/20)
Length of Visible Light 12h 11m
Length of Day
11h 24m
Waning Gibbous, 59% of the Moon is Illuminated
Oct 20
Waning Gibbous
Oct 21
Last Quarter
Oct 27
New
Nov 4
First Quarter
Nov 12
Full

Hourly Weather History & Observations

Time (EDT) Temp. Heat Index Dew Point Humidity Pressure Visibility Wind Dir Wind Speed Gust Speed Precip Events Conditions
12:08 AM 81.0 °F 89.2 °F 79.0 °F 94% 29.88 in 10.0 mi SW 8.1 mph - N/A   Mostly Cloudy
12:42 AM 81.0 °F 88.6 °F 78.1 °F 91% 29.87 in 10.0 mi SW 10.4 mph - N/A   Mostly Cloudy
12:53 AM 81.0 °F 87.9 °F 77.0 °F 88% 29.87 in 10.0 mi SW 10.4 mph - N/A   Mostly Cloudy
1:53 AM 77.0 °F - 75.9 °F 96% 29.88 in 10.0 mi South 6.9 mph - N/A   Clear
2:53 AM 77.0 °F - 77.0 °F 100% 29.86 in 10.0 mi SSW 3.5 mph - N/A   Scattered Clouds
3:53 AM 79.0 °F - 78.1 °F 97% 29.86 in 10.0 mi South 4.6 mph - N/A   Overcast
4:03 AM 78.1 °F - 78.1 °F 100% 29.86 in 10.0 mi SSE 5.8 mph - N/A   Overcast
4:53 AM 78.1 °F - 78.1 °F 100% 29.87 in 10.0 mi SSW 9.2 mph - 0.00 in   Overcast
5:42 AM 77.0 °F - 77.0 °F 100% 29.89 in 1.8 mi SW 9.2 mph - 0.21 in Rain Heavy Rain
5:51 AM 75.2 °F - 75.2 °F 100% 29.89 in 3.0 mi SW 6.9 mph - 0.23 in Rain Light Rain
5:53 AM 75.9 °F - 75.9 °F 100% 29.89 in 4.0 mi SW 6.9 mph - 0.24 in Rain Light Rain
6:53 AM 75.9 °F - 75.9 °F 100% 29.91 in 10.0 mi West 4.6 mph - 0.05 in   Overcast
7:53 AM 77.0 °F - 77.0 °F 100% 29.92 in 10.0 mi Calm Calm - 0.00 in Rain Light Rain
8:53 AM 78.1 °F - 77.0 °F 96% 29.94 in 10.0 mi South 6.9 mph - 0.00 in   Overcast
9:53 AM 81.0 °F 89.2 °F 79.0 °F 94% 29.96 in 10.0 mi SSW 5.8 mph - N/A   Mostly Cloudy
10:35 AM 82.0 °F 91.6 °F 79.0 °F 90% 29.96 in 10.0 mi SW 6.9 mph - N/A   Overcast
10:53 AM 82.0 °F 91.6 °F 79.0 °F 90% 29.96 in 10.0 mi WSW 6.9 mph - N/A   Overcast
11:20 AM 82.9 °F 94.8 °F 80.1 °F 91% 29.96 in 10.0 mi SW 9.2 mph - N/A   Overcast
11:31 AM 82.9 °F 93.8 °F 79.0 °F 88% 29.97 in 10.0 mi SW 9.2 mph - N/A   Overcast
11:49 AM 82.4 °F 94.0 °F 80.6 °F 94% 29.97 in 10.0 mi SW 10.4 mph - N/A   Overcast
11:53 AM 82.9 °F 94.8 °F 80.1 °F 91% 29.97 in 10.0 mi SW 9.2 mph - N/A   Overcast
12:07 PM 84.0 °F 94.8 °F 78.1 °F 82% 29.97 in 10.0 mi SW 9.2 mph - N/A   Overcast
12:53 PM 87.1 °F 97.3 °F 75.9 °F 69% 29.96 in 10.0 mi WSW 10.4 mph - N/A   Mostly Cloudy
1:53 PM 84.9 °F 95.3 °F 77.0 °F 77% 29.95 in 10.0 mi SW 10.4 mph - N/A   Scattered Clouds
2:53 PM 88.0 °F 96.5 °F 73.9 °F 63% 29.92 in 10.0 mi WSW 9.2 mph - N/A   Scattered Clouds
3:53 PM 87.1 °F 96.3 °F 75.0 °F 67% 29.92 in 10.0 mi SW 8.1 mph - N/A   Scattered Clouds
4:53 PM 84.0 °F 94.8 °F 78.1 °F 82% 29.93 in 10.0 mi WSW 10.4 mph - N/A   Mostly Cloudy
5:53 PM 82.9 °F 92.8 °F 78.1 °F 85% 29.94 in 10.0 mi SW 5.8 mph - N/A   Mostly Cloudy
6:53 PM 82.0 °F 90.2 °F 77.0 °F 85% 29.94 in 10.0 mi SW 4.6 mph - N/A   Mostly Cloudy
7:53 PM 81.0 °F 87.9 °F 77.0 °F 88% 29.95 in 10.0 mi Calm Calm - N/A   Scattered Clouds
8:53 PM 80.1 °F 85.8 °F 77.0 °F 90% 29.96 in 10.0 mi South 4.6 mph - N/A   Overcast
9:53 PM 79.0 °F - 78.1 °F 97% 29.97 in 10.0 mi SE 3.5 mph - N/A   Overcast
10:53 PM 78.1 °F - 78.1 °F 100% 29.99 in 10.0 mi SSE 5.8 mph - N/A   Mostly Cloudy
11:53 PM 79.0 °F - 79.0 °F 100% 29.99 in 10.0 mi SSE 5.8 mph - N/A   Overcast